User: anonymous   Login
Location: Hickory_Viewmont
(35.7830°N, 81.3170°W)
Time: 00:35:37
(UTC-05:00)
Language:

Okean-O - Orbit

View from above orbital plane
View from above orbital plane
View from above satellite
View from above satellite

Ground track
Ground track

The orbit data is extracted from the following two-line orbital elements,

1 25860U 99039A   18051.51282034  .00000033  00000-0  12424-4 0  9994
2 25860  98.2099  45.1117 0001826  81.5000 278.6415 14.76531762   476
Epoch (UTC): 20 February 2018 12:18:27
Eccentricity: 0.0001826
inclination: 98.2099°
perigee height: 639 km
apogee height: 641 km
right ascension of ascending node: 45.1117°
argument of perigee: 81.5000°
revolutions per day: 14.76531762
mean anomaly at epoch: 278.6415°
orbit number at epoch: 47

The dashed part of the orbit path shows where the satellite is in the earth's shadow,  

DLR